Location: *
(46.1006°N, 1.8394°E)
Time: 02:07:48
(UTC+00:00)

MetOp-B - Pass Details

Date: 20 September 2019
Orbit: 819 x 821 km, 98.7° (Epoch: 20 October)

Event Time Altitude Azimuth Distance (km) Brightness Sun altitude
Exits shadow 20:12:07 49° 74° (ENE) 1,056 4.4 -23.6°
Maximum altitude 20:12:15 49° 69° (ENE) 1,055 4.4 -23.6°
Drops below altitude 10° 20:17:23 10° 356° (N) 2,427 7.0 -24.4°
Sets 20:19:48 0° 351° (N) 3,363 7.9 -24.8°
